Location: Newark
(49.8348°N, 24.0280°E)
Time: 00:30:38
(UTC+00:00)

Explorer 7 - Pass Details

Date: 25 January 2020
Orbit: 485 x 679 km, 50.3° (Epoch: 24 February)

Event Time Altitude Azimuth Distance (km) Brightness Sun altitude
Rises 20:58:33 0° 221° (SW) 2,566 - -53.5°
Reaches altitude 10° 21:00:54 10° 211° (SSW) 1,673 - -53.7°
Maximum altitude 21:04:14 30° 148° (SSE) 886 - -54.1°
Drops below altitude 10° 21:07:33 10° 86° (E) 1,670 - -54.4°
Sets 21:09:54 0° 75° (ENE) 2,562 - -54.6°
